Location: Unspecified
(0.0000°N, 0.0000°E)
Time: 16:01:39
(UTC+01:00)

ARIANE DEB (SPELDA) - Visible Passes

Search period start: 03 March 2015 00:00
Search period end: 13 March 2015 00:00
Orbit: 335 x 33220 km, 3.3° (Epoch: 02 March)

Date Brightness Start Highest point End Pass type
(mag) Time Alt. Az. Time Alt. Az. Time Alt. Az.
03 Mar 7.0 04:23:56 50° W 12:54:34 87° S 13:08:36 10° E visible
03 Mar 8.7 23:53:13 28° E 23:53:13 28° E 08:11:58 10° E visible
05 Mar 6.5 05:07:07 35° W 13:43:23 84° S 13:53:02 10° E visible
06 Mar 8.6 00:36:21 43° E 00:36:21 43° E 09:01:33 10° E visible
07 Mar 5.9 05:50:08 22° W 14:30:14 80° S 14:37:06 10° E visible
08 Mar 8.4 01:19:17 59° E 01:19:17 59° E 09:48:58 10° E visible
08 Mar 2.2 20:00:09 10° WSW 20:02:27 62° S 20:05:45 18° E visible
08 Mar 2.2 20:00:09 10° WSW 20:02:27 62° S 20:05:39 19° E visible
09 Mar 5.3 06:33:20 10° W 15:15:52 75° S 15:20:51 10° E visible
10 Mar 8.3 02:02:03 75° ENE 02:02:03 75° ENE 10:34:58 10° E visible
10 Mar 2.9 20:43:50 10° W 20:46:44 77° S 20:47:51 54° ESE visible
10 Mar 2.9 20:43:50 10° W 20:46:44 77° S 20:47:47 56° ESE visible
12 Mar 8.0 02:44:37 84° NW 02:49:21 85° N 11:20:00 10° E visible
12 Mar 4.0 21:27:12 10° W 22:13:41 - E 21:29:47 55° W visible
12 Mar 4.0 21:27:12 10° W 22:13:36 - E 21:29:45 54° W visible
12 Mar 4.0 21:27:12 10° W 22:13:41 - E 21:29:48 55° W visible
12 Mar 4.0 21:27:13 10° W 22:13:41 - E 21:29:48 55° W visible
12 Mar 4.0 21:27:13 10° W 22:13:41 - E 21:29:47 55° W visible
